This is the latest recevied weather packets stored in our database for station/object PA1CG-7. If no packets are shown the sender has not sent any weather packets the latest 1 day(s).
| Time | Temp. | Humidity | Pressure | Rain* | Wind** | Luminosity | Snow |
|---|---|---|---|---|---|---|---|
| 1778026337 | 10° C | 78% | 1010 hPa | 0 mm | 2.24 m/s, 315° | - | - |
| 1778025737 | 10° C | 78% | 1010.1 hPa | 0 mm | 2.24 m/s, 315° | - | - |
| 1778025137 | 10° C | 77% | 1010.3 hPa | 0 mm | 2.24 m/s, 315° | - | - |
| 1778024537 | 10° C | 77% | 1010.2 hPa | 0 mm | 2.68 m/s, 338° | - | - |
| 1778023937 | 10° C | 76% | 1010.3 hPa | 0 mm | 3.58 m/s, 315° | - | - |
| 1778023337 | 10° C | 76% | 1010.4 hPa | 0 mm | 3.13 m/s, 315° | - | - |
| 1778022737 | 10° C | 76% | 1010.4 hPa | 0 mm | 1.79 m/s, 315° | - | - |
| 1778022137 | 10° C | 76% | 1010.5 hPa | 0 mm | 1.34 m/s, 293° | - | - |
| 1778021537 | 10° C | 75% | 1010.6 hPa | 0 mm | 2.68 m/s, 0° | - | - |
| 1778020937 | 10° C | 75% | 1010.5 hPa | 0 mm | 2.68 m/s, 315° | - | - |
| 1778020337 | 10° C | 74% | 1010.5 hPa | 0 mm | 3.13 m/s, 315° | - | - |
| 1778019737 | 10.56° C | 74% | 1010.6 hPa | 0 mm | 1.79 m/s, 338° | - | - |
| 1778019137 | 10.56° C | 74% | 1010.7 hPa | 0 mm | 2.24 m/s, 293° | - | - |
| 1778018537 | 10.56° C | 73% | 1010.8 hPa | 0 mm | 2.68 m/s, 315° | - | - |
| 1778017936 | 10.56° C | 73% | 1010.9 hPa | 0 mm | 2.68 m/s, 315° | - | - |
| 1778017336 | 10.56° C | 73% | 1010.9 hPa | 0 mm | 2.24 m/s, 315° | - | - |
| 1778016737 | 10.56° C | 73% | 1010.9 hPa | 0 mm | 1.34 m/s, 315° | - | - |
| 1778016136 | 11.11° C | 73% | 1010.9 hPa | 0 mm | 1.34 m/s, 315° | - | - |
| 1778015536 | 11.11° C | 73% | 1010.9 hPa | 0 mm | 1.79 m/s, 315° | - | - |
| 1778014936 | 11.11° C | 73% | 1011 hPa | 0 mm | 2.24 m/s, 315° | - | - |
| 1778014336 | 11.11° C | 73% | 1011.1 hPa | 0 mm | 2.68 m/s, 338° | - | - |
| 1778013737 | 11.11° C | 73% | 1011.1 hPa | 0 mm | 2.24 m/s, 338° | - | - |
| 1778013136 | 11.11° C | 73% | 1011 hPa | 0 mm | 1.34 m/s, 338° | - | - |
| 1778012536 | 11.11° C | 72% | 1011.1 hPa | 0 mm | 3.58 m/s, 315° | - | - |
| 1778011936 | 11.67° C | 72% | 1010.9 hPa | 0 mm | 3.13 m/s, 315° | - | - |
* Rain latest hour (hover to see other rain measurements)
** Current wind speed in m/s (hover to see current wind gust speed)